FW5813 Weather Reports


time (UTC)temp
F
wind
direction
speed
knots
gust
knots
rain 1hr
in
rain 24hr
in
rain mn
in
humidity
%
barometer
mb
20260508004840 51 9 1.7 3.5 0.00 0.00 0.00 78 1015.1
20260508004340 51 22 1.7 3.5 0.00 0.00 0.00 78 1015.1
20260508003839 51 359 2.6 3.5 0.00 0.00 0.00 77 1015.2
20260508003339 52 354 2.6 3.5 0.00 0.00 0.00 77 1015.1
20260508002340 52 14 1.7 4.3 0.00 0.00 0.00 76 1015.3
20260508001840 52 20 1.7 4.3 0.00 0.00 0.00 76 1015.1
20260508001340 52 6 1.7 4.3 0.00 0.00 0.00 76 1015.2
20260508000342 53 301 2.6 2.6 0.00 0.00 0.00 75 1015.2
20260507235840 53 44 0.0 2.6 0.00 0.00 0.00 75 1015.3
20260507234339 54 30 1.7 2.6 0.00 0.00 0.00 73 1015.3
20260507233840 54 312 0.0 2.6 0.00 0.00 0.00 73 1015.3
20260507233340 55 290 0.0 2.6 0.00 0.00 0.00 72 1015.4
20260507232853 55 22 0.0 2.6 0.00 0.00 0.00 72 1015.3
20260507232340 55 179 0.0 2.6 0.00 0.00 0.00 71 1015.2
20260507231840 55 13 1.7 2.6 0.00 0.00 0.00 71 1015.2
20260507231340 55 131 0.0 2.6 0.00 0.00 0.00 71 1015.5
20260507230839 56 237 0.0 2.6 0.00 0.00 0.00 71 1015.5
20260507230339 56 16 0.9 2.6 0.00 0.00 0.00 71 1015.4
20260507225840 56 0 0.9 2.6 0.00 0.00 0.00 71 1015.2
20260507225340 56 309 0.0 3.5 0.00 0.00 0.00 71 1015.2
20260507224339 56 30 1.7 3.5 0.00 0.00 0.00 71 1015.2
20260507223840 57 20 1.7 3.5 0.00 0.00 0.00 70 1015.0
20260507223339 57 345 0.9 2.6 0.00 0.00 0.00 70 1015.2
20260507222840 57 13 0.0 2.6 0.00 0.00 0.00 70 1015.0
20260507222340 57 42 1.7 3.5 0.00 0.00 0.00 70 1015.0
20260507221840 57 28 0.9 4.3 0.00 0.00 0.00 69 1014.9
20260507221339 57 7 3.5 3.5 0.00 0.00 0.00 69 1015.0
20260507220840 57 16 0.0 1.7 0.00 0.00 0.00 69 1014.8
20260507220340 57 22 1.7 3.5 0.00 0.00 0.00 68 1014.8
20260507215839 57 341 1.7 3.5 0.00 0.00 0.00 68 1014.8
20260507215340 58 217 0.0 3.5 0.00 0.00 0.00 67 1014.9
20260507214840 58 229 0.0 5.2 0.00 0.00 0.00 66 1014.6
20260507214340 58 320 1.7 5.2 0.00 0.00 0.00 66 1014.7
20260507213840 58 288 0.0 3.5 0.00 0.00 0.00 66 1014.6
20260507213340 58 330 2.6 3.5 0.00 0.00 0.00 66 1014.4
20260507212840 58 26 0.0 2.6 0.00 0.00 0.00 66 1014.6
20260507212340 58 258 2.6 2.6 0.00 0.00 0.00 65 1014.5
20260507211340 58 258 0.9 2.6 0.00 0.00 0.00 65 1014.6
20260507210353 59 44 0.0 1.7 0.00 0.00 0.00 64 1014.3
20260507205840 59 104 0.9 2.6 0.00 0.00 0.00 64 1014.4
20260507205342 59 250 0.0 2.6 0.00 0.00 0.00 64 1014.4
20260507204839 59 61 0.9 2.6 0.00 0.00 0.00 64 1014.3
20260507204339 59 315 0.0 2.6 0.00 0.00 0.00 64 1014.3
20260507203840 59 225 0.0 1.7 0.00 0.00 0.00 63 1014.1
20260507203339 59 40 0.0 1.7 0.00 0.00 0.00 63 1013.8
20260507202840 60 15 0.9 2.6 0.00 0.00 0.00 62 1014.0
20260507202339 60 18 0.9 5.2 0.00 0.00 0.00 61 1014.0
20260507201839 60 309 0.0 5.2 0.00 0.00 0.00 61 1013.7
20260507201340 60 334 3.5 4.3 0.00 0.00 0.00 61 1014.0
20260507200840 60 227 0.9 2.6 0.00 0.00 0.00 60 1013.9
20260507200345 60 241 1.7 2.6 0.00 0.00 0.00 60 1013.5
20260507195840 61 143 0.0 3.5 0.00 0.00 0.00 60 1013.5
20260507195340 61 226 0.0 3.5 0.00 0.00 0.00 59 1013.9
20260507194840 61 342 0.9 9.6 0.00 0.00 0.00 59 1013.4
20260507194339 61 287 3.5 9.6 0.00 0.00 0.00 60 1013.4
20260507193840 61 217 2.6 6.1 0.00 0.00 0.00 62 1013.3
20260507193355 60 221 3.5 5.2 0.00 0.00 0.00 63 1013.3
20260507192840 61 240 0.9 3.5 0.00 0.00 0.00 63 1013.4
20260507192339 61 235 2.6 3.5 0.00 0.00 0.00 62 1013.2
20260507191839 61 226 0.9 2.6 0.00 0.00 0.00 62 1013.1
20260507191340 60 89 0.0 1.7 0.00 0.00 0.00 64 1012.9
20260507190839 60 282 0.0 3.5 0.00 0.00 0.00 68 1012.9
20260507190340 60 245 0.0 4.3 0.00 0.00 0.00 74 1012.9
20260507185839 60 242 1.7 4.3 0.00 0.00 0.00 74 1012.7
20260507185339 60 218 1.7 2.6 0.00 0.00 0.00 74 1012.8
20260507184840 60 242 1.7 3.5 0.00 0.00 0.00 74 1012.8
20260507184339 60 217 0.0 4.3 0.00 0.00 0.00 74 1012.8
20260507183841 60 172 2.6 4.3 0.00 0.00 0.00 74 1012.7
20260507182840 60 224 2.6 4.3 0.00 0.00 0.00 72 1012.6
20260507181839 60 213 1.7 3.5 0.00 0.00 0.00 71 1012.5
20260507181340 61 174 0.9 3.5 0.00 0.00 0.00 70 1012.4
20260507180840 61 204 1.7 3.5 0.00 0.00 0.00 70 1012.4
20260507180340 61 101 1.7 2.6 0.00 0.00 0.00 69 1012.2
20260507175840 61 192 1.7 3.5 0.00 0.00 0.00 69 1012.3
20260507175339 61 195 2.6 4.3 0.00 0.00 0.00 67 1012.1
20260507174840 61 194 1.7 4.3 0.00 0.00 0.00 67 1012.3
20260507174340 62 198 1.7 4.3 0.00 0.00 0.00 66 1011.9
20260507173839 62 216 2.6 3.5 0.00 0.00 0.00 65 1012.2
20260507173339 62 213 1.7 3.5 0.00 0.00 0.00 65 1012.1
20260507172340 62 220 1.7 5.2 0.00 0.00 0.00 65 1012.0
20260507171840 62 126 0.9 6.1 0.00 0.00 0.00 64 1011.7
20260507170339 63 234 4.3 8.7 0.00 0.00 0.00 60 1011.6
20260507165840 63 140 1.7 8.7 0.00 0.00 0.00 57 1011.5
20260507165340 63 208 1.7 5.2 0.00 0.00 0.00 58 1011.5
20260507164840 63 202 2.6 4.3 0.00 0.00 0.00 59 1011.8
20260507164340 64 229 1.7 6.1 0.00 0.00 0.00 58 1011.6
20260507163339 64 175 1.7 13.0 0.00 0.00 0.00 56 1011.4
20260507162839 64 201 1.7 9.6 0.00 0.00 0.00 55 1011.5
20260507162340 65 217 3.5 9.6 0.00 0.00 0.00 54 1011.5
20260507161839 65 184 1.7 8.7 0.00 0.00 0.00 53 1011.3
20260507161340 65 196 3.5 8.7 0.00 0.00 0.00 52 1011.3
20260507160839 66 199 7.8 8.7 0.00 0.00 0.00 51 1011.3
20260507160339 66 197 4.3 7.8 0.00 0.00 0.00 49 1011.1
20260507155840 67 185 1.7 7.8 0.00 0.00 0.00 47 1011.2
20260507154840 69 83 0.0 2.6 0.00 0.00 0.00 44 1011.0
20260507154340 70 146 0.0 1.7 0.00 0.00 0.00 41 1011.1
20260507153840 70 208 0.0 1.7 0.00 0.00 0.00 40 1011.1
20260507153340 71 315 0.0 3.5 0.00 0.00 0.00 41 1011.0
20260507152839 71 340 0.0 3.5 0.00 0.00 0.00 40 1011.2
20260507151840 71 236 0.0 4.3 0.00 0.00 0.00 40 1011.0
20260507151340 71 306 1.7 4.3 0.00 0.00 0.00 39 1010.9
20260507150840 72 27 1.7 2.6 0.00 0.00 0.00 38 1010.9
20260507150339 72 199 1.7 3.5 0.00 0.00 0.00 38 1010.9
20260507145840 73 220 2.6 3.5 0.00 0.00 0.00 37 1010.9
20260507144340 74 315 0.0 6.1 0.00 0.00 0.00 37 1010.8
20260507143840 74 355 1.7 6.1 0.00 0.00 0.00 38 1011.0
20260507142840 74 256 0.0 3.5 0.00 0.00 0.00 36 1010.9
20260507142340 73 353 1.7 3.5 0.00 0.00 0.00 38 1010.9
20260507141840 73 306 0.9 4.3 0.00 0.00 0.00 38 1011.0
20260507141340 71 36 0.9 9.6 0.00 0.00 0.00 40 1010.9
20260507140840 71 2 7.8 11.3 0.00 0.00 0.00 41 1011.1
20260507140340 73 352 7.0 11.3 0.00 0.00 0.00 40 1011.0
20260507135340 73 24 2.6 2.6 0.00 0.00 0.00 36 1010.8
20260507134840 73 204 0.9 2.6 0.00 0.00 0.00 37 1011.0
20260507133340 73 226 5.2 5.2 0.00 0.00 0.00 36 1010.9
20260507132340 72 224 0.0 5.2 0.00 0.00 0.00 38 1011.4
20260507131840 73 248 3.5 5.2 0.00 0.00 0.00 39 1011.3
20260507131340 71 207 2.6 5.2 0.00 0.00 0.00 39 1011.1
20260507130340 72 1 0.0 4.3 0.00 0.00 0.00 41 1011.2
20260507125841 72 135 0.0 6.1 0.00 0.00 0.00 40 1011.3
20260507125340 73 244 1.7 6.1 0.00 0.00 0.00 38 1011.4
20260507124340 74 231 1.7 7.8 0.00 0.00 0.00 38 1011.6
20260507123840 72 197 0.0 5.2 0.00 0.00 0.00 41 1011.3
20260507122840 74 216 3.5 7.0 0.00 0.00 0.00 38 1011.5
20260507122340 71 138 0.0 7.0 0.00 0.00 0.00 42 1011.3
20260507121840 71 189 5.2 12.2 0.00 0.00 0.00 41 1011.4
20260507121340 72 222 5.2 12.2 0.00 0.00 0.00 41 1011.5
20260507120840 74 260 1.7 7.8 0.00 0.00 0.00 39 1011.5
20260507120340 75 17 1.7 7.0 0.00 0.00 0.00 38 1011.6
20260507115839 74 294 0.9 7.8 0.00 0.00 0.00 40 1011.5
20260507115340 73 40 1.7 7.8 0.00 0.00 0.00 41 1011.7
20260507114352 73 211 1.7 3.5 0.00 0.00 0.00 39 1011.8
20260507113339 72 257 0.0 6.1 0.00 0.00 0.00 44 1012.1
20260507112339 70 231 0.0 5.2 0.00 0.00 0.00 43 1011.7
20260507111839 70 227 1.7 9.6 0.00 0.00 0.00 43 1012.1
20260507111340 69 239 1.7 9.6 0.00 0.00 0.00 44 1011.7
20260507110841 70 218 1.7 9.6 0.00 0.00 0.00 45 1012.1
20260507105841 73 236 5.2 5.2 0.00 0.00 0.00 41 1012.3
20260507105340 74 256 1.7 5.2 0.00 0.00 0.00 38 1012.0
20260507103840 70 222 1.7 8.7 0.00 0.00 0.00 43 1012.0
20260507103345 72 265 2.6 6.1 0.00 0.00 0.00 42 1012.1
20260507102840 70 237 1.7 6.1 0.00 0.00 0.00 44 1012.3
20260507102340 71 251 2.6 11.3 0.00 0.00 0.00 42 1012.3
20260507101839 70 242 2.6 11.3 0.00 0.00 0.00 43 1012.4
20260507101340 70 115 0.0 7.8 0.00 0.00 0.00 43 1012.3
20260507100839 70 306 2.6 7.8 0.00 0.00 0.00 44 1012.3
20260507100353 70 357 0.9 3.5 0.00 0.00 0.00 46 1012.4
20260507095840 69 217 0.9 3.5 0.00 0.00 0.00 47 1012.4
20260507095340 69 328 0.9 5.2 0.00 0.00 0.00 47 1012.4
20260507094841 68 332 1.7 5.2 0.00 0.00 0.00 49 1012.3
20260507094340 69 350 1.7 5.2 0.00 0.00 0.00 48 1012.1
20260507093840 69 233 1.7 5.2 0.00 0.00 0.00 47 1012.1
20260507092840 68 285 0.9 7.8 0.00 0.00 0.00 50 1012.1
20260507092341 67 221 2.6 4.3 0.00 0.00 0.00 52 1011.9
20260507091840 67 241 3.5 5.2 0.00 0.00 0.00 51 1012.1
20260507090840 66 192 1.7 4.3 0.00 0.00 0.00 51 1012.1
20260507090340 67 8 0.9 4.3 0.00 0.00 0.00 52 1012.0
20260507085840 67 231 2.6 4.3 0.00 0.00 0.00 51 1011.9
20260507085340 67 24 2.6 4.3 0.00 0.00 0.00 51 1012.1
20260507084840 67 209 3.5 4.3 0.00 0.00 0.00 51 1012.1
20260507084340 66 272 0.9 3.5 0.00 0.00 0.00 53 1011.9
20260507083840 65 25 1.7 7.8 0.00 0.00 0.00 56 1011.8
20260507083340 64 240 1.7 7.8 0.00 0.00 0.00 56 1011.8
20260507082840 64 199 3.5 7.0 0.00 0.00 0.00 56 1011.6
20260507082340 65 205 0.0 4.3 0.00 0.00 0.00 56 1011.8
20260507080840 65 233 6.1 7.8 0.00 0.00 0.00 54 1011.8
20260507075340 64 214 3.5 4.3 0.00 0.00 0.00 55 1011.6
20260507074340 64 223 2.6 4.3 0.00 0.00 0.00 55 1011.8
20260507073840 64 269 1.7 5.2 0.00 0.00 0.00 57 1011.4
20260507073340 64 242 1.7 6.1 0.00 0.00 0.00 56 1011.6
20260507072340 64 240 1.7 6.1 0.00 0.00 0.00 58 1011.4
20260507071340 64 259 1.7 5.2 0.00 0.00 0.00 58 1011.2
20260507070840 64 11 1.7 5.2 0.00 0.00 0.00 59 1011.4
20260507070353 64 207 3.5 5.2 0.00 0.00 0.00 57 1011.2
20260507065840 64 225 5.2 5.2 0.00 0.00 0.00 59 1011.3
20260507065340 63 359 0.9 5.2 0.00 0.00 0.00 62 1011.2
20260507064840 63 220 3.5 5.2 0.00 0.00 0.00 62 1011.3
20260507064340 62 225 3.5 7.8 0.00 0.00 0.00 64 1011.4
20260507062839 60 224 4.3 9.6 0.00 0.00 0.00 69 1011.6
20260507062340 59 195 1.7 7.8 0.00 0.00 0.00 70 1011.4
20260507061853 59 349 0.9 7.8 0.00 0.00 0.00 71 1011.1
20260507061340 58 221 1.7 9.6 0.00 0.00 0.00 72 1011.3
20260507060839 58 229 1.7 9.6 0.00 0.00 0.00 73 1011.3
20260507060340 58 233 6.1 9.6 0.00 0.00 0.00 73 1011.3
20260507055840 58 96 0.9 6.1 0.00 0.00 0.00 73 1010.9
20260507055340 58 217 2.6 6.1 0.00 0.00 0.00 72 1011.0
20260507054340 58 255 1.7 7.0 0.00 0.00 0.00 73 1010.6
20260507053841 58 235 4.3 7.0 0.00 0.00 0.00 74 1010.9
20260507053341 57 234 2.6 7.8 0.00 0.00 0.00 74 1010.6
20260507052840 57 278 1.7 7.8 0.00 0.00 0.00 74 1010.6
20260507052340 57 240 4.3 6.1 0.00 0.00 0.00 75 1010.6
20260507051840 56 222 0.9 6.1 0.00 0.00 0.00 76 1010.9
20260507050840 56 254 2.6 8.7 0.00 0.00 0.00 76 1010.6
20260507050339 56 237 4.3 9.6 0.00 0.00 0.00 76 1010.6
20260507045840 56 225 7.0 9.6 0.00 0.00 0.00 76 1010.4
20260507045340 56 232 3.5 7.8 0.00 0.00 0.00 76 1010.5
20260507044840 56 238 6.1 7.8 0.00 0.00 0.00 77 1010.3
20260507044339 56 229 3.5 5.2 0.00 0.00 0.00 77 1010.3
20260507043840 56 215 1.7 6.1 0.00 0.00 0.00 78 1010.3
20260507043340 55 204 1.7 7.0 0.00 0.00 0.00 78 1010.0
20260507042840 55 213 0.9 7.8 0.00 0.00 0.00 79 1009.9
20260507042340 55 211 7.0 7.8 0.00 0.00 0.00 79 1010.1
20260507041840 55 201 1.7 5.2 0.00 0.00 0.00 79 1009.9
20260507040840 55 169 1.7 4.3 0.00 0.00 0.00 79 1009.9
20260507035840 55 264 1.7 5.2 0.00 0.00 0.00 80 1009.7
20260507035340 55 221 3.5 4.3 0.00 0.00 0.00 80 1009.7
20260507034839 55 203 1.7 4.3 0.00 0.00 0.00 80 1009.7
20260507034340 55 210 1.7 4.3 0.00 0.00 0.00 80 1009.6
20260507033340 55 206 2.6 3.5 0.00 0.00 0.00 79 1009.5
20260507032340 56 196 2.6 3.5 0.00 0.00 0.00 79 1009.9
20260507031840 56 202 1.7 5.2 0.00 0.00 0.00 78 1009.5
20260507031340 56 220 3.5 5.2 0.00 0.00 0.00 78 1009.4
20260507030840 56 219 0.9 3.5 0.00 0.00 0.00 78 1009.5
20260507025841 56 227 1.7 6.1 0.00 0.00 0.00 78 1009.2
20260507025340 56 220 1.7 6.1 0.00 0.00 0.00 78 1009.0
20260507024840 57 194 3.5 4.3 0.00 0.00 0.00 78 1009.0
20260507024339 57 197 1.7 4.3 0.00 0.00 0.00 78 1009.2
20260507023840 57 176 0.9 3.5 0.00 0.00 0.00 77 1009.0
20260507022840 57 197 2.6 5.2 0.00 0.00 0.00 77 1009.0
20260507021853 57 218 0.9 4.3 0.00 0.00 0.00 78 1009.0
20260507020840 57 216 5.2 5.2 0.00 0.00 0.00 78 1008.9
20260507020339 57 246 5.2 5.2 0.00 0.00 0.00 78 1009.2
20260507015840 57 206 1.7 5.2 0.00 0.00 0.00 78 1008.8
20260507015341 57 152 0.9 6.1 0.00 0.00 0.00 78 1008.8
20260507014840 57 228 3.5 6.1 0.00 0.00 0.00 78 1008.7
20260507014340 57 204 1.7 4.3 0.00 0.00 0.00 78 1008.8
20260507013839 57 196 2.6 4.3 0.00 0.00 0.00 78 1008.8
20260507013353 57 207 1.7 4.3 0.00 0.00 0.00 78 1008.6
20260507012839 58 184 3.5 3.5 0.00 0.00 0.00 78 1008.3
20260507012340 58 233 1.7 4.3 0.00 0.00 0.00 77 1008.4
20260507011840 58 212 0.9 5.2 0.00 0.00 0.00 77 1008.4
20260507011353 58 210 2.6 5.2 0.00 0.00 0.00 76 1008.5
20260507010340 59 227 5.2 7.8 0.00 0.00 0.00 75 1008.4
20260507005840 59 217 2.6 2.6 0.00 0.00 0.00 74 1008.4
20260507005340 59 354 0.9 2.6 0.00 0.00 0.00 73 1008.3